Skip Page Navigation
NASA JPL Caltech
NASA Logo - Jet Propulsion Laboratory + View the NASA Portal
+ Center for Near-Earth Object Studies
JPL Home Earth Solar System Stars & Galaxies Technology
JPL Solar System Dynamics
BODIES ORBITS EPHEMERIDES TOOLS PHYSICAL DATA DISCOVERY FAQ SITE MAP
IMPORTANT: The SSD Announcement email list is now available. Major changes are coming in the near future, including possible hostname and/or URL changes. To be notified of such changes, subscribe to this email list.

Please visit this page for more details.


JPL Small-Body Database Browser
Search: [ help ]  
344187 (2001 FK202)
Classification: Main-belt Asteroid          SPK-ID: 2344187
Ephemeris | Orbit Diagram | Orbital Elements | Mission Design | Physical Parameters | Discovery Circumstances ]

[ show orbit diagram ]
Orbital Elements at Epoch 2458600.5 (2019-Apr-27.0) TDB
Reference: JPL 10 (heliocentric ecliptic J2000)
 Element Value Uncertainty (1-sigma)   Units 
e .1032547642554925 5.5996e-08  
a 2.654798814688791 2.3932e-08 au
q 2.380678188932339 1.4661e-07 au
i 4.460052682864998 7.5359e-06 deg
node 184.4231053836899 7.5033e-05 deg
peri 290.8884928444722 8.3798e-05 deg
M 123.2644311534151 3.5711e-05 deg
tp 2458059.520105894186
(2017-Nov-02.02010589)
0.00015561 TDB
period 1579.959117611985
4.33
2.1364e-05
5.849e-08
d
yr
n .2278539969718449 3.081e-09 deg/d
Q 2.928919440445243 2.6403e-08 au
  Orbit Determination Parameters
   # obs. used (total)      123  
   data-arc span      6681 days (18.29 yr)  
   first obs. used      2001-03-21  
   last obs. used      2019-07-06  
   planetary ephem.      DE431  
   SB-pert. ephem.      SB431-N16  
   condition code      0  
   norm. resid. RMS      .54018  
   source      ORB  
   producer      Otto Matic  
   solution date      2019-Sep-24 06:29:21  

Additional Information
 Earth MOID = 1.40166 au 
 Jupiter MOID = 2.15874 au 
 T_jup = 3.377 
[ show covariance matrix ]

Ephemeris | Orbit Diagram | Orbital Elements | Mission Design | Physical Parameters | Discovery Circumstances ]

Physical Parameter Table
Parameter Symbol Value Units Sigma Reference Notes
absolute magnitude H 17.0   n/a MPO440550  

344187 (2001 FK202)          Discovered 2001-Mar-21 by SKADS at Kitt Peak
Reference: 20121128/Numbers.arcLast Updated: 2012-12-03

Alternate Designations
 2001 FK202 = 2005 EP249 
Ephemeris | Orbit Diagram | Orbital Elements | Mission Design | Physical Parameters | Discovery Circumstances ]
ABOUT SSD CREDITS/AWARDS PRIVACY/COPYRIGHT GLOSSARY LINKS
FirstGov 2019-Dec-07 06:57 UT
(server date/time)  
NASA Home Page
Site Manager:   Ryan S. Park
Webmaster  Alan B. Chamberlin